Weather in Ladovskaya Balka

Russia / Stavropol Krai     45°37′50″N   41°23′58″E
temp.,
°C
wind,
m/s
gust,
m/s
humid.,
%
clouds,
%
prec.,
mm/h
press.,
hPa
HPBL,
m
10 may, mon
mon1000:00+6w4109197 0.0 1021269
03:00+5wsw369526 1.0 1021132
06:00+5w599319 0.1 1021273
09:00+10wnw796694 0.6 10211317
12:00+12wnw81158100 0.9 10201989
15:00+10wnw91270100 1.8 10191400
18:00+9w8137799 0.2 10181168
21:00+9wsw81372100 0.2 10181061
11 may, tue
tue1100:00+9wsw91563100 0.1 10161157
03:00+8wsw101672100 0.3 10151055
06:00+8sw101879100 1.4 10151243
09:00+8ssw111882100 2.4 10161260
12:00+12s71163100 1.0 10161917
15:00+11sse71172100 1.8 10171221
18:00+11se61172100 0.3 1017565
21:00+9se3688100 0.6 1018167
12 may, wed
wed1200:00+9n3486100 0.2 101762
03:00+8ene2693100 0.2 1017148
06:00+9ene3693100 0.0 1017229
09:00+14ese46679 0.0 1017636
12:00+18ese565520 0.0 10171387
15:00+19ese565322 0.0 10161503
18:00+19ese35680 0.0 1015202
21:00+13e34870 0.0 101555
13 may, thu
thu1300:00+11e35875 0.0 101582
03:00+11e478558 0.0 1015105
06:00+12e4108624 0.0 1015206
09:00+19ese710675 0.0 1014636
12:00+23ese785799 0.0 1014990
15:00+24ese78558 0.0 10131059
18:00+22ese5106999 0.0 1012351
21:00+17ese4118311 0.0 1013183
14 may, fri
fri1400:00+16ese412791 0.0 1012189
03:00+14ese512815 0.0 1011187
06:00+15ese5118444 0.0 1011207
09:00+22ese686985 0.0 1011423
12:00+27ese445699 0.0 1011697
15:00+29e455236 0.0 1011905
18:00+25e5107094 0.0 1010245
21:00+20se49806 0.0 1011132